Location: Newark
(33.6439°N, 114.9881°W)
Time: 04:53:06
(UTC+00:00)

Transit 2A Rocket - Pass Details

Date: 26 August 2019
Orbit: 592 x 911 km, 66.7° (Epoch: 18 September)

Event Time Altitude Azimuth Distance (km) Brightness Sun altitude
Rises 10:34:01 0° 343° (NNW) 2,950 8.3 -29.9°
Reaches altitude 10° 10:36:34 10° 354° (N) 1,998 7.5 -29.5°
Maximum altitude 10:40:33 32° 58° (ENE) 1,047 6.2 -28.8°
Drops below altitude 10° 10:44:24 10° 122° (ESE) 1,919 7.3 -28.2°
Sets 10:46:48 0° 132° (SE) 2,813 8.1 -27.8°
